Weather History for Platteville, WI

Change the Weather History Date:

Friday, April 25, 2014

  Actual Average (KDBQ) Record (KDBQ)
Temperature  
Mean Temperature 52 °F 52 °F  
Max Temperature 67 °F 62 °F 86 °F (1986)
Min Temperature 38 °F 41 °F 28 °F (1887)
Degree Days  
Heating Degree Days 12 13  
Month to date heating degree days 448  
Since 1 July heating degree days 6759  
Cooling Degree Days 0 0  
Month to date cooling degree days 0  
Year to date cooling degree days 0  
Growing Degree Days 2 (Base 50)    
Moisture  
Dew Point 39 °F    
Average Humidity 64    
Maximum Humidity 95    
Minimum Humidity 28    
Precipitation  
Precipitation 0.00 in 0.13 in 2.15 in (2009)
Month to date precipitation 2.98  
Year to date precipitation 8.00  
Snow  
Snow 0.00 in 0.10 in - ()
Month to date snowfall 1.9  
Since 1 July snowfall 41.8  
Snow Depth -    
Sea Level Pressure  
Sea Level Pressure 29.80 in    
Wind  
Wind Speed 9 mph (West)    
Max Wind Speed 26 mph    
Max Gust Speed 36 mph    
Visibility 9 miles    
Events      
T = Trace of Precipitation, MM = Missing Value Source: NWS Daily Summary

Daily Weather History Graph

Daily Weather History Graph

Search for Another Location

Airport:

Trip Planner

Search our weather history database for the weather conditions in past years. The results will help you decide how hot, cold, wet, or windy it might be!

Date:

Astronomy

Apr. 25, 2014 Rise Set
Actual Time 6:04 AM CDT 7:55 PM CDT
Civil Twilight 5:34 AM CDT 8:25 PM CDT
Nautical Twilight 4:57 AM CDT 9:02 PM CDT
Astronomical Twilight 4:18 AM CDT 9:42 PM CDT
Moon 3:58 AM CDT (4/25) 4:12 PM CDT (4/25)
Length of Visible Light 14h 51m
Length of Day
13h 50m
Waning Crescent, 15% of the Moon is Illuminated
Apr 25
Waning Crescent
Apr 29
New
May 6
First Quarter
May 14
Full
May 21
Last Quarter

Hourly Weather History & Observations

Time (CDT) Temp. Windchill Dew Point Humidity Pressure Visibility Wind Dir Wind Speed Gust Speed Precip Events Conditions
12:15 AM 47.7 °F - 45.1 °F 91% 29.71 in 7.0 mi NW 11.5 mph - N/A   Mostly Cloudy
12:35 AM 47.1 °F - 43.7 °F 88% 29.71 in 10.0 mi NW 12.7 mph - N/A   Mostly Cloudy
12:55 AM 46.2 °F 40.8 °F 43.2 °F 89% 29.72 in 10.0 mi NW 11.5 mph - N/A   Mostly Cloudy
1:15 AM 45.5 °F 41.8 °F 42.8 °F 90% 29.72 in 10.0 mi NW 6.9 mph - N/A   Scattered Clouds
1:35 AM 45.5 °F 41.3 °F 42.8 °F 90% 29.72 in 10.0 mi WNW 8.1 mph - N/A   Mostly Cloudy
1:55 AM 44.8 °F 40.4 °F 42.1 °F 90% 29.72 in 10.0 mi WNW 8.1 mph - N/A   Overcast
2:15 AM 44.2 °F 39.2 °F 41.9 °F 91% 29.72 in 7.0 mi WNW 9.2 mph - N/A   Overcast
2:35 AM 43.7 °F 38.6 °F 41.2 °F 91% 29.72 in 7.0 mi NW 9.2 mph - N/A   Mostly Cloudy
2:55 AM 43.3 °F 37.7 °F 40.6 °F 90% 29.72 in 10.0 mi NW 10.4 mph - N/A   Clear
3:15 AM 43.0 °F 38.8 °F 40.1 °F 90% 29.73 in 10.0 mi NW 6.9 mph - N/A   Clear
3:35 AM 42.1 °F 38.4 °F 39.6 °F 91% 29.73 in 10.0 mi WNW 5.8 mph - N/A   Clear
3:55 AM 41.2 °F 38.2 °F 39.4 °F 93% 29.74 in 7.0 mi NW 4.6 mph - N/A   Clear
4:15 AM 40.8 °F 36.9 °F 38.8 °F 93% 29.76 in 7.0 mi WNW 5.8 mph - N/A   Clear
4:55 AM 39.6 °F 37.4 °F 37.9 °F 94% 29.77 in 5.0 mi WNW 3.5 mph - N/A   Clear
5:15 AM 39.4 °F - 37.6 °F 93% 29.77 in 4.0 mi Calm Calm - N/A   Clear
5:35 AM 38.3 °F 34.8 °F 36.7 °F 94% 29.78 in 3.0 mi WNW 4.6 mph - N/A   Clear
5:55 AM 38.1 °F 34.6 °F 36.7 °F 95% 29.78 in 3.0 mi WNW 4.6 mph - N/A   Clear
6:15 AM 38.1 °F 34.6 °F 36.5 °F 94% 29.79 in 1.5 mi West 4.6 mph - N/A   Unknown
6:35 AM 38.5 °F 35.0 °F 37.0 °F 95% 29.80 in 1.8 mi West 4.6 mph - N/A   Unknown
6:55 AM 38.3 °F 35.9 °F 36.7 °F 94% 29.81 in 1.2 mi West 3.5 mph - N/A   Unknown
7:15 AM 39.6 °F 37.4 °F 38.1 °F 95% 29.82 in 1.0 mi West 3.5 mph - N/A   Unknown
7:35 AM 41.0 °F 37.1 °F 39.7 °F 95% 29.83 in 4.0 mi West 5.8 mph - N/A   Clear
7:55 AM 42.8 °F 38.0 °F 41.4 °F 95% 29.84 in 7.0 mi West 8.1 mph - N/A   Clear
8:15 AM 44.1 °F 40.8 °F 42.6 °F 95% 29.84 in 10.0 mi West 5.8 mph - N/A   Clear
8:35 AM 45.9 °F 42.9 °F 43.0 °F 90% 29.84 in 10.0 mi West 5.8 mph - N/A   Clear
8:55 AM 46.9 °F - 43.0 °F 86% 29.83 in 10.0 mi West 4.6 mph - N/A   Clear
9:15 AM 48.2 °F - 43.3 °F 83% 29.83 in 10.0 mi Calm Calm - N/A   Clear
9:35 AM 50.2 °F - 44.4 °F 81% 29.83 in 10.0 mi Calm Calm - N/A   Clear
9:55 AM 52.2 °F - 46.2 °F 80% 29.83 in 10.0 mi SW 6.9 mph - N/A   Clear
10:15 AM 53.2 °F - 46.8 °F 79% 29.83 in 10.0 mi SW 8.1 mph - N/A   Clear
10:55 AM 56.3 °F - 46.6 °F 70% 29.83 in 10.0 mi SSW 10.4 mph - N/A   Clear
11:15 AM 57.2 °F - 46.2 °F 67% 29.83 in 10.0 mi SW 11.5 mph 16.1 mph N/A   Clear
11:35 AM 59.0 °F - 47.5 °F 66% 29.82 in 10.0 mi SSW 10.4 mph - N/A   Clear
11:55 AM 60.8 °F - 46.2 °F 59% 29.82 in 10.0 mi WSW 13.8 mph 21.9 mph N/A   Clear
12:15 PM 61.3 °F - 45.7 °F 56% 29.82 in 10.0 mi WSW 16.1 mph 19.6 mph N/A   Clear
12:35 PM 62.4 °F - 44.4 °F 52% 29.81 in 10.0 mi West 10.4 mph 24.2 mph N/A   Clear
12:55 PM 64.2 °F - 44.8 °F 49% 29.81 in 10.0 mi WNW 18.4 mph 25.3 mph N/A   Scattered Clouds
1:15 PM 65.1 °F - 41.5 °F 42% 29.81 in 10.0 mi West 16.1 mph 25.3 mph N/A   Clear
1:35 PM 65.7 °F - 38.1 °F 36% 29.81 in 10.0 mi WNW 19.6 mph 35.7 mph N/A   Scattered Clouds
1:55 PM 65.3 °F - 36.1 °F 34% 29.81 in 10.0 mi West 19.6 mph 26.5 mph N/A   Clear
2:15 PM 66.0 °F - 36.0 °F 33% 29.81 in 10.0 mi West 19.6 mph 25.3 mph N/A   Clear
2:55 PM 66.6 °F - 34.2 °F 30% 29.81 in 10.0 mi WNW 20.7 mph 29.9 mph N/A   Clear
3:15 PM 66.6 °F - 32.9 °F 29% 29.82 in 10.0 mi West 24.2 mph 28.8 mph N/A   Clear
3:55 PM 66.4 °F - 32.0 °F 28% 29.81 in 10.0 mi West 26.5 mph 34.5 mph N/A   Clear
4:15 PM 65.5 °F - 32.0 °F 29% 29.81 in 10.0 mi West 24.2 mph 28.8 mph N/A   Clear
4:35 PM 66.0 °F - 32.7 °F 29% 29.81 in 10.0 mi West 16.1 mph 26.5 mph N/A   Clear
4:55 PM 64.8 °F - 33.4 °F 31% 29.82 in 10.0 mi West 15.0 mph 21.9 mph N/A   Clear
5:15 PM 67.3 °F - 34.0 °F 29% 29.82 in 10.0 mi West 16.1 mph 26.5 mph N/A   Scattered Clouds
5:35 PM 65.7 °F - 33.6 °F 30% 29.82 in 10.0 mi WNW 13.8 mph 17.3 mph N/A   Scattered Clouds
5:55 PM 65.3 °F - 32.9 °F 30% 29.82 in 10.0 mi West 17.3 mph 24.2 mph N/A   Scattered Clouds
6:15 PM 64.8 °F - 32.9 °F 30% 29.82 in 10.0 mi WNW 9.2 mph - N/A   Clear
6:35 PM 64.4 °F - 33.3 °F 31% 29.83 in 10.0 mi WNW 13.8 mph - N/A   Clear
6:55 PM 63.5 °F - 34.2 °F 33% 29.83 in 10.0 mi WNW 9.2 mph - N/A   Clear
7:15 PM 62.6 °F - 33.6 °F 34% 29.83 in 10.0 mi WNW 9.2 mph - N/A   Clear
7:35 PM 59.9 °F - 36.0 °F 41% 29.83 in 10.0 mi WNW 8.1 mph - N/A   Clear
7:55 PM 57.7 °F - 36.3 °F 45% 29.83 in 10.0 mi WNW 6.9 mph - N/A   Clear
8:15 PM 57.4 °F - 34.9 °F 43% 29.83 in 10.0 mi NW 6.9 mph - N/A   Clear
8:35 PM 57.4 °F - 34.3 °F 42% 29.84 in 10.0 mi NW 5.8 mph - N/A   Clear
8:55 PM 55.0 °F - 35.1 °F 47% 29.84 in 10.0 mi Calm Calm - N/A   Clear
9:15 PM 53.6 °F - 35.8 °F 51% 29.85 in 10.0 mi Calm Calm - N/A   Clear
9:35 PM 55.0 °F - 34.7 °F 46% 29.86 in 10.0 mi WSW 3.5 mph - N/A   Clear
9:55 PM 57.4 °F - 33.3 °F 40% 29.85 in 10.0 mi Calm Calm - N/A   Clear
10:15 PM 56.8 °F - 33.3 °F 41% 29.86 in 10.0 mi Calm Calm - N/A   Clear
10:35 PM 54.9 °F - 34.0 °F 45% 29.85 in 10.0 mi Calm Calm - N/A   Clear
10:55 PM 50.0 °F - 36.1 °F 59% 29.85 in 10.0 mi South 4.6 mph - N/A   Clear
11:15 PM 52.7 °F - 35.2 °F 52% 29.85 in 10.0 mi SSW 5.8 mph - N/A   Clear
11:35 PM 52.0 °F - 35.2 °F 53% 29.85 in 10.0 mi SSW 4.6 mph - N/A   Clear
11:55 PM 48.6 °F - 35.8 °F 61% 29.85 in 10.0 mi Calm Calm - N/A   Clear